Startpagina
METAR-TAF:

METAR-TAF

Vliegvelden :

Ermelo, Zuid-Afrika

breedte: 26-29-44S, lengte: 29-58-47E, hoogte: 1737 m

Actueel weer

Dit bericht is 55 minuten geleden gemaakt, om 06:39 UTC
Wind 9 kt uit het noordnoordwesten
Temperatuur 21°C
Vochtigheid 73%
Druk 1024 hPa
Zicht: 8000 m
Gebroken wolken op 1000 ft

METAR: FAEO 200639Z 33009KT 8000 BKN010 21/16 Q1024

Tijdstip: 09:34 (07:34 UTC)


TAF: ontbreekt

Waarnemingen en weersverwachtingen van meer dan 4000 vliegvelden (METAR en TAF).

De beschikbare stations zijn de gele en rode punten op de kaart.

Ga met uw muis naar het station om de naam te zien.

Klik dan om waarnemingen en weersverwachtingen te zien.

kaart wijzigen: klik op de groene knoppen met een zwart kruis om in te zoomen, op de groene knop met een streepje om uit te zoomen of op de groene pijlen voor aangrenzende kaarten.


METAR-TAF: